Regional Weather Roundup
Issued by NWS

Home | Current Version | Previous Version | Text Only | Print | Product List | Glossary On
Versions: 1 2 3 4 5 6 7 8 9 10 11 12 13 14 15 16 17 18 19 20 21 22 23 24 25 26 27 28 29 30 31 32 33 34 35 36 37 38 39 40 41 42 43 44 45 46 47 48 49 50
971
ASUS44 KLIX 202301
RWRLA
LOUISIANA WEATHER ROUNDUP
NATIONAL WEATHER SERVICE NEW ORLEANS LA
600 PM CDT MON OCT 20 2014

NOTE: "FAIR" INDICATES FEW OR NO CLOUDS BELOW 12,000 FEET WITH NO
      SIGNIFICANT WEATHER AND/OR OBSTRUCTIONS TO VISIBILITY.
      SKY/WX - SKY CONDITION AND SIGNIFICANT WEATHER.
      TMP - AIR TEMPERATURE.    DP   - DEWPOINT TEMPERATURE.
      RH  - RELATIVE HUMIDITY.  PRES - PRESSURE.
      HX  - HEAT INDEX.         WCI  - WIND CHILL INDEX.

*  THESE STATIONS ARE NOT NWS OR FAA STATIONS AND ARE NOT UNDER
   NWS QUALITY CONTROL.

LAZ040-048-061>063-065-066-069-210000-
SOUTHEAST LOUISIANA

CITY           SKY/WX    TMP DP  RH WIND       PRES   REMARKS
N.O. AUDUBON   NOT AVBL
N.O. INTL ARPT PTCLDY    73  53  49 N8        29.99S
N.O. LAKEFRONT PTCLDY    75  54  47 N7        30.00R
N.O. DOWNTOWN* FAIR      77  48  36 N8        30.00R
SLIDELL        PTCLDY    74  55  51 CALM      29.99S
BATON ROUGE    CLEAR     74  55  51 CALM      30.00S
BOOTHVILLE     MOCLDY    73  66  78 NE7       29.99R
BELLE CHASSE   PTCLDY    70  57  63 NE5       29.98S
BOGALUSA*        N/A     73  50  44 N3        30.02R
NEW ROADS*     FAIR      72  56  56 NW6       30.00S
GONZALES*      FAIR      74  56  52 CALM      29.99S
HAMMOND*       NOT AVBL
HOUMA*         NOT AVBL
PORT FOURCHON* CLEAR     75  64  69 E7        30.01R

$$

LAZ041-044-053-054-210000-
SOUTHWEST LOUISIANA

CITY           SKY/WX    TMP DP  RH WIND       PRES   REMARKS
LAKE CHARLES   CLEAR     77  58  51 NE6       29.99S
LAFAYETTE      CLEAR     75  54  47 N8        30.00R
PATTERSON      NOT AVBL
SALT POINT       N/A     78  60  53 CALM      29.98R
NEW IBERIA     PTCLDY    76  57  51 NE7       30.01R
CHENAULT AIRPK NOT AVBL

$$

LAZ027-028-210000-
CENTRAL LOUISIANA

CITY           SKY/WX    TMP DP  RH WIND       PRES   REMARKS
FORT POLK      PTCLDY    73  55  52 NE5       30.01S
ALEXANDRIA INT PTCLDY    74  53  48 N3        30.00S
ALEXANDRIA     PTCLDY    69  59  70 CALM      30.02R

$$

LAZ001-002-210000-
NORTHWEST LOUISIANA

CITY           SKY/WX    TMP DP  RH WIND       PRES   REMARKS
SHREVEPORT     CLEAR     75  50  41 N7        30.02R
BARKSDALE AFB  CLEAR     75  53  45 NE5       30.03R
DTN SHREVEPORT CLEAR     74  52  46 NE3       30.03R

$$

LAZ014-016-210000-
NORTHEAST LOUISIANA

CITY           SKY/WX    TMP DP  RH WIND       PRES   REMARKS
MONROE         PTCLDY    73  53  49 N3        30.03F
TALLULAH       CLEAR     70  50  49 NE5       30.02S

$$




USA.gov is the U.S. government's official web portal to all federal, state and local government web resources and services.